UNISAT 3

Last updated on Fri Nov 11 2016 17:19:33 GMT+0000 (Coordinated Universal Time)

1 28373U 04025H 16316.42369130 .00000106 00000-0 41600-4 0 9991 2 28373 98.3112 256.6044 0069568 150.0474 210.4726 14.45346467652448

Satellite not in orbit

UNISAT 3